Lawton, OK

4:12 PM CDT on April 20, 2018 (GMT -0500)
Lawton-Fort Sill Regional

Weather History for KLAW - October, 2011

Change the Weather History Date:

Wednesday, October 5, 2011

  Actual Average Record
Temperature  
Mean Temperature 68 °F 68 °F  
Max Temperature 82 °F 81 °F 100 °F (1937)
Min Temperature 55 °F 55 °F 38 °F (1932)
Degree Days  
Heating Degree Days 0 2  
Month to date heating degree days 10  
Since 1 July heating degree days 21  
Cooling Degree Days 4 5  
Month to date cooling degree days 27  
Year to date cooling degree days 2256  
Growing Degree Days 18 (Base 50)    
Moisture  
Dew Point 43 °F    
Average Humidity 38    
Maximum Humidity 55    
Minimum Humidity 24    
Precipitation  
Precipitation 0.00 in 0.11 in 3.14 in (1919)
Month to date precipitation 0.55  
Year to date precipitation 24.54  
Sea Level Pressure  
Sea Level Pressure 30.03 in    
Wind  
Wind Speed 9 mph (SE)    
Max Wind Speed 18 mph    
Max Gust Speed 28 mph    
Visibility 10 miles    
Events      
T = Trace of Precipitation, MM = Missing Value Source: NWS Daily Summary

Daily Weather History Graph

Daily Weather History Graph

Search for Another Location

Airport or City:

Astronomy

Oct. 05, 2011 Rise Set
Actual Time 7:31 AM CDT 7:12 PM CDT
Civil Twilight 7:06 AM CDT 7:37 PM CDT
Nautical Twilight 6:36 AM CDT 8:06 PM CDT
Astronomical Twilight 6:07 AM CDT 8:36 PM CDT
Moon 3:40 PM CDT (10/5) 1:33 AM CDT (10/5)
Length of Visible Light 12h 31m
Length of Day
11h 41m
Waxing Gibbous, 66% of the Moon is Illuminated
Oct 5
Waxing Gibbous
Oct 11
Full
Oct 19
Last Quarter
Oct 26
New
Nov 2
First Quarter

Hourly Weather History & Observations

Time (CDT) Temp. Dew Point Humidity Pressure Visibility Wind Dir Wind Speed Gust Speed Precip Events Conditions
12:53 AM 66.0 °F 39.0 °F 37% 30.07 in 10.0 mi SE 6.9 mph - N/A   Clear
1:53 AM 62.1 °F 39.0 °F 43% 30.07 in 10.0 mi SE 5.8 mph - N/A   Clear
2:53 AM 62.1 °F 39.0 °F 43% 30.07 in 10.0 mi ESE 3.5 mph - N/A   Clear
3:53 AM 55.9 °F 37.9 °F 51% 30.07 in 10.0 mi East 3.5 mph - N/A   Clear
4:53 AM 55.9 °F 39.0 °F 53% 30.08 in 10.0 mi East 3.5 mph - N/A   Clear
5:53 AM 55.9 °F 39.9 °F 55% 30.08 in 10.0 mi East 4.6 mph - N/A   Clear
7:53 AM 55.9 °F 39.9 °F 55% 30.09 in 10.0 mi East 3.5 mph - N/A   Clear
8:53 AM 63.0 °F 44.1 °F 50% 30.09 in 10.0 mi SE 5.8 mph - N/A   Clear
9:53 AM 69.1 °F 48.0 °F 47% 30.09 in 10.0 mi SSE 10.4 mph - N/A   Clear
10:53 AM 75.9 °F 51.1 °F 42% 30.08 in 10.0 mi SSE 16.1 mph 23.0 mph N/A   Clear
11:53 AM 78.1 °F 52.0 °F 40% 30.07 in 10.0 mi South 17.3 mph 25.3 mph N/A   Clear
12:53 PM 79.0 °F 48.9 °F 35% 30.05 in 10.0 mi South 18.4 mph 27.6 mph N/A   Clear
1:53 PM 79.0 °F 46.0 °F 31% 30.03 in 10.0 mi SSE 12.7 mph 21.9 mph N/A   Clear
2:53 PM 82.0 °F 43.0 °F 25% 30.00 in 10.0 mi South 17.3 mph 24.2 mph N/A   Mostly Cloudy
3:53 PM 82.9 °F 42.1 °F 24% 29.98 in 10.0 mi South 17.3 mph - N/A   Partly Cloudy
4:53 PM 82.0 °F 43.0 °F 25% 29.95 in 10.0 mi SSE 12.7 mph - N/A   Clear
6:53 PM 80.1 °F 39.9 °F 24% 29.95 in 10.0 mi SE 9.2 mph - N/A   Scattered Clouds
7:53 PM 78.1 °F 39.0 °F 25% 29.94 in 10.0 mi SE 13.8 mph - N/A   Partly Cloudy
8:53 PM 73.9 °F 41.0 °F 30% 29.95 in 10.0 mi SE 9.2 mph - N/A   Clear
9:53 PM 73.9 °F 41.0 °F 30% 29.97 in 10.0 mi SE 9.2 mph - N/A   Clear
10:53 PM 73.9 °F 42.1 °F 32% 29.96 in 10.0 mi SE 13.8 mph - N/A   Mostly Cloudy
11:53 PM 72.0 °F 42.1 °F 34% 29.97 in 10.0 mi SSE 13.8 mph 21.9 mph N/A   Overcast